Regional Weather Roundup
Issued by NWS

Home | Current Version | Previous Version | Graphics & Text | Print | Product List | Glossary On
Versions: 1 2 3 4 5 6 7 8 9 10 11 12 13 14 15 16 17 18 19 20 21 22 23 24 25 26 27 28 29 30 31 32 33 34 35 36 37 38 39 40 41 42 43 44 45 46 47 48 49 50
956
ASUS44 KMEG 270510
RWRTN
TENNESSEE HOURLY STATE WEATHER ROUNDUP
NATIONAL WEATHER SERVICE MEMPHIS TN
1200 AM CDT TUE SEP 27 2016

TNZ002-004-019-021-049-052-054-088>092-270600-
WEST TENNESSEE

CITY           SKY/WX    TMP DP  RH WIND       PRES   REMARKS
MEMPHIS INTL   CLOUDY    65  54  67 NE5       30.09F
NWS MEMPHIS      N/A     58 N/A N/A MISG        N/A
JACKSON          N/A    N/A N/A N/A MISG      30.10F
DYERSBURG      CLEAR    N/A N/A N/A MISG        N/A
UNION CITY     CLEAR     52  52 100 CALM      30.10S
PARIS            N/A     46  46 100 CALM      30.11F VSB 3/4
HUNTINGDON     CLEAR     52  52 100 CALM      30.09F FOG
LEXINGTON      CLEAR     55  55 100 CALM      30.08F
$$

TNZ008-025-027-028-033-062-065-066-270600-
NORTH MIDDLE TENNESSEE

CITY           SKY/WX    TMP DP  RH WIND       PRES   REMARKS
NASHVILLE      PTCLDY    61  55  81 N5        30.09F
PORTLAND       FOG       52  52 100 CALM      30.10F VSB 1/4
CLARKSVILLE    CLEAR     53  52  96 CALM      30.10F
SMYRNA         CLEAR     61  56  83 N6        30.10S
COOKEVILLE     CLOUDY    63  61  94 N3        30.08S
GALLATIN       CLEAR     55  54  94 CALM      30.11F
CROSSVILLE     CLOUDY    62  62 100 N5        30.10S FOG
$$

TNZ061-075-076-078-094-096-097-270600-
SOUTH MIDDLE TENNESSEE

CITY           SKY/WX    TMP DP  RH WIND       PRES   REMARKS
FAYETTEVILLE   CLOUDY    64  59  82 N9        30.07S
TULLAHOMA      CLOUDY    63  59  88 N5        30.09S
WINCHESTER     CLOUDY    64  63  94 N6        30.07F
MCMINNVILLE    CLOUDY    64  63  94 N7        30.08F
COLUMBIA       CLEAR    N/A N/A N/A CALM      30.08S
SHELBYVILLE    CLEAR     63  59  88 N5        30.09S
$$

TNZ017-018-042-046-047-270600-
NORTHEAST TENNESSEE

CITY           SKY/WX    TMP DP  RH WIND       PRES   REMARKS
TRI CITIES     CLOUDY    68  66  93 CALM      30.05S FOG
ELIZABETHTON     N/A     68  66  94 CALM      30.05S
$$

TNZ012-013-036-069-073-074-270600-
CENTRAL EAST TENNESSEE

CITY           SKY/WX    TMP DP  RH WIND       PRES   REMARKS
KNOXVILLE      CLOUDY    70  67  90 CALM      30.04R
OAK RIDGE      CLOUDY    71  67  87 CALM      30.05S
DOWNTOWN KNOXV CLOUDY    72  70  94 CALM      30.04S
GATLINBURG     MOCLDY    66  66 100 CALM      30.04S
MORRISTOWN     CLOUDY    70  68  94 CALM      30.04S
JACKSBORO      CLOUDY    68  63  83 CALM      30.09S
$$

TNZ083-085-099-270600-
SOUTHEAST TENNESSEE

CITY           SKY/WX    TMP DP  RH WIND       PRES   REMARKS
CHATTANOOGA    CLOUDY    71  68  90 CALM      30.04R
$$

SKY/WX REPORTED AS FAIR MEANS FEW OR NO CLOUDS BELOW
12 THOUSAND FEET.





USA.gov is the U.S. government's official web portal to all federal, state and local government web resources and services.